Flag for India Weather past 2 weeks in Yavatmal, Maharashtra, India

Now
84 °F

Partly cloudy.


Feels Like: 87 °F
Forecast: 75 / 90 °F
Wind: 7 mph from Northwest

Location: Nagpur Sonegaon

Current Time: Sep 22, 2014 at 8:10:56 PM

Latest Report: Sep 22, 2014 at 6:40 PM


Visibility: 3 mi

Pressure: 29.77 "Hg

Humidity: 58%

Dew point: 68 °F

Location of YavatmalLocation

Historic Weather in Yavatmal — Graph

°F

Yavatmal temperature yesterday

Maximum temperature yesterday: 91 °F (at 12:10 PM)
Minimum temperature yesterday: 77 °F (at 3:40 AM)
Average temperature yesterday: 82 °F

Past Weeks' High & Low Weather Summary

 TemperatureHumidityPressure
High95 °F (Sep 19, 2:10 PM)100% (Sep 7, 8:10 PM)29.86 "Hg (Sep 7, 8:10 PM)
Low72 °F (Sep 8, 9:40 PM)50% (Sep 19, 2:10 PM)29.53 "Hg (Sep 8, 3:10 AM)
Average80 °F83%29.72 "Hg
* Reported Sep 7 8:10 PM — Sep 22 6:40 PM, Yavatmal, Weather by CustomWeather, © 2014

Note: Actual official high and low records may vary slightly from our data, if they occured in-between our weather recording intervals... More about our weather records

Advertising

Yavatmal weather history for previous 24 hours

 ConditionsComfort  
Time TempWeatherWind HumidityBarometerVisibility
6:40 PM
Sep 22
84 °FPartly cloudy.7 mph58%29.77 "Hg3 mi
6:10 PM86 °FScattered clouds.7 mph62%29.77 "Hg3 mi
5:40 PM86 °FHaze.3 mph75%29.74 "Hg3 mi
5:10 PM91 °FHaze.3 mph63%29.74 "Hg3 mi
4:40 PM93 °FScattered clouds.3 mph56%29.74 "Hg3 mi
3:10 PM91 °FScattered clouds.5 mph59%29.74 "Hg3 mi
2:40 PM91 °FScattered clouds.5 mph59%29.77 "Hg3 mi
2:10 PM91 °FScattered clouds.6 mph59%29.77 "Hg3 mi
1:10 PM90 °FPartly sunny.7 mph59%29.80 "Hg4 mi
5:10 AM79 °FHaze.3 mph74%29.74 "Hg3 mi
2:40 AM79 °FPassing clouds.3 mph74%29.74 "Hg3 mi
1:40 AM79 °FHaze.5 mph74%29.74 "Hg3 mi
1:10 AM79 °FHaze.3 mph74%29.77 "Hg3 mi
11:40 PM
Sep 21
79 °FHaze.3 mph79%29.80 "Hg3 mi
11:10 PM79 °FHaze.3 mph79%29.80 "Hg3 mi
10:40 PM79 °FHaze.3 mph79%29.80 "Hg3 mi
10:10 PM81 °FHaze.2 mph74%29.80 "Hg3 mi
9:10 PM81 °FHaze.3 mph74%29.77 "Hg3 mi
8:10 PM82 °FHaze.6 mph70%29.74 "Hg3 mi
Weather by CustomWeather, © 2014

See weather overviewHow to use our weather pages